Tracking 31027 objects as of 19-Jul-2025
HD Live streaming from Space Station
objects crossing your sky now

STARLINK-3786

Track STARLINK-3786 now!
10-day predictions
STARLINK-3786 is classified as:


NORAD ID: 52263
Int'l Code: 2022-041C
Perigee: 546.0 km
Apogee: 547.8 km
Inclination: 53.2 °
Period: 95.4 minutes
Semi major axis: 6917 km
RCS: Unknown
Launch date: April 21, 2022
Source: United States (US)
Launch site: AIR FORCE EASTERN TEST RANGE (AFETR)
Your satellite tracking list
FENGYUN 1C DEB
Track 1 satellite(s)




NASA's NSSDC Master Catalog

Two Line Element Set (TLE):
1 52263U 22041C   25199.68943564  .00000311  00000-0  37658-4 0  9996
2 52263  53.2178  79.5860 0001354  98.5064 261.6082 15.08834718180241
Source of the keplerian elements: AFSPC